Location: Newark
(50.8922°N, 11.6094°E)
Time: 22:50:09
(UTC+00:00)

Envisat - Visible Passes

Search period start: 22 January 2020 00:00
Search period end: 01 February 2020 00:00
Orbit: 764 x 766 km, 98.1° (Epoch: 22 January)

Date Brightness Start Highest point End Pass type
(mag) Time Alt. Az. Time Alt. Az. Time Alt. Az.
22 Jan 5.9 04:44:43 10° NE 04:48:10 18° E 04:51:33 10° SE visible
22 Jan 3.0 06:22:40 10° NNE 06:27:46 76° WNW 06:32:50 10° SSW visible
22 Jan 4.7 17:42:49 10° SSW 17:47:28 36° W 17:52:09 10° NNW visible
23 Jan 3.8 05:45:56 10° NNE 05:50:57 56° E 05:55:56 10° S visible
23 Jan 3.3 17:05:27 10° S 17:10:31 71° WSW 17:15:38 10° NNW visible
23 Jan 6.3 18:49:03 10° W 18:50:30 11° W 18:51:56 10° WNW visible
24 Jan 5.2 05:09:32 10° NNE 05:13:56 28° E 05:18:17 10° SSE visible
24 Jan 3.0 16:28:46 10° SSE 16:33:46 60° ENE 16:38:47 10° N visible
24 Jan 5.5 18:09:14 10° SW 18:13:11 22° W 18:17:10 10° NW visible
25 Jan 6.1 04:33:57 10° NE 04:36:42 14° E 04:39:27 10° ESE visible
25 Jan 3.1 06:11:21 10° NNE 06:16:29 89° ESE 06:21:34 10° SSW visible
25 Jan 4.3 17:31:16 10° S 17:36:06 44° W 17:40:58 10° NNW visible
26 Jan 4.3 05:34:42 10° NNE 05:39:36 45° E 05:44:28 10° S visible
26 Jan 3.1 16:54:07 10° SSE 16:59:13 86° WSW 17:04:21 10° NNW visible
26 Jan 6.1 18:36:26 10° WSW 18:39:01 14° W 18:41:38 10° NW visible
27 Jan 5.5 04:58:28 10° NE 05:02:32 23° E 05:06:33 10° SE visible
27 Jan 5.2 17:57:29 10° SSW 18:01:47 27° W 18:06:07 10° NW visible
28 Jan 6.3 04:23:29 10° ENE 04:25:14 12° E 04:26:58 10° ESE visible
28 Jan 3.3 06:00:04 10° NNE 06:05:10 74° ESE 06:10:15 10° S visible
28 Jan 3.9 17:19:48 10° S 17:24:45 53° W 17:29:45 10° NNW visible
29 Jan 4.7 05:23:31 10° NNE 05:28:15 37° E 05:32:56 10° SSE visible
29 Jan 3.0 16:42:51 10° SSE 16:47:56 79° ENE 16:53:02 10° NNW visible
29 Jan 5.9 18:24:16 10° SW 18:27:34 17° W 18:30:53 10° NW visible
30 Jan 5.8 04:47:29 10° NE 04:51:06 19° E 04:54:42 10° SE visible
30 Jan 4.8 17:45:50 10° SSW 17:50:24 33° W 17:55:00 10° NNW visible
31 Jan 3.7 05:48:48 10° NNE 05:53:52 60° ESE 05:58:53 10° S visible
31 Jan 3.5 17:08:23 10° S 17:13:25 66° WSW 17:18:31 10° NNW visible
31 Jan 6.5 18:53:06 10° W 18:53:28 10° W 18:53:50 10° WNW visible
